                ,  0.721,  0.869,  1.017,  1.165,  1.312,  1.460,  1.608,  1.756,  1.904,  2.052,  2.199,  2.347,  2.495,  2.643,  2.791,  2.938,  3.086,  3.234,  3.382,  3.530,  3.677,  3.825,  3.973,  4.121,  4.269,  4.417,  4.564,  4.712,  4.860,  5.008,  5.156,  5.303
1999/07/21 00:00,  999.0,   -2.7,   -2.4,   -3.4,   -2.2,   -1.0,  999.0,  999.0,   -2.7,   -2.9,  999.0,   -2.1,   -3.1,   -4.6,  999.0,  999.0,   -3.5,   -3.0,  999.0,  999.0,  999.0,  999.0,  999.0,   -4.4,  999.0,   -3.3,  999.0,  999.0,  999.0,  999.0,  999.0,   -4.5
1999/07/21 00:10,  999.0,   -2.1,   -3.1,  999.0,  999.0,   -0.6,   -2.4,  999.0,   -3.0,   -3.2,   -3.1,   -3.8,   -4.4,   -5.5,   -5.4,   -5.5,   -5.4,  999.0,  999.0,   -4.8,   -5.1,   -5.5,  999.0,   -4.7,  999.0,   -3.3,   -3.1,  999.0,  999.0,  999.0,  999.0,  999.0
1999/07/21 00:20,   -2.1,   -2.9,   -3.3,  999.0,  999.0,   -1.1,   -3.5,   -3.1,   -2.7,   -2.0,   -1.3,   -2.7,   -3.4,   -4.1,   -5.5,   -5.4,   -5.1,   -4.7,  999.0,   -4.8,   -5.2,  999.0,  999.0,   -3.6,  999.0,   -2.8,   -3.0,  999.0,  999.0,  999.0,   -3.4,   -3.3
1999/07/21 00:30,   -1.0,   -1.7,   -2.5,  999.0,   -0.4,   -1.3,   -2.8,   -2.4,   -2.8,   -2.7,   -2.3,   -2.1,   -3.0,   -3.3,  999.0,   -5.0,   -4.7,   -4.0,   -3.7,   -4.5,  999.0,   -4.6,  999.0,  999.0,  999.0,   -2.8,   -2.3,  999.0,  999.0,  999.0,   -2.4,   -3.5
1999/07/21 00:40,   -1.2,  999.0,   -2.0,   -0.8,  999.0,   -2.5,   -2.4,  999.0,   -1.1,   -2.2,   -1.9,   -2.9,   -2.2,   -3.9,   -3.9,   -3.9,   -4.8,   -4.1,  999.0,   -3.9,  999.0,   -5.6,  999.0,  999.0,  999.0,  999.0,   -3.3,   -2.7,  999.0,  999.0,  999.0,   -4.5
1999/07/21 00:50,   -1.2,   -1.3,   -1.6,   -1.8,   -1.9,   -4.3,   -4.6,   -2.6,   -2.0,   -2.1,   -3.2,   -3.7,   -4.2,   -5.0,   -4.3,   -4.4,   -4.8,   -5.6,   -5.4,   -6.2,   -5.4,   -5.4,   -5.2,  999.0,  999.0,  999.0,   -1.9,   -2.0,  999.0,   -2.3,   -2.8,   -4.1
1999/07/21 01:00,   -1.9,   -1.0,   -1.6,  999.0,   -3.3,   -5.7,   -5.5,   -3.6,   -1.7,   -1.9,   -2.2,   -2.6,   -5.2,   -5.4,   -4.7,   -4.7,   -4.5,   -4.8,  999.0,  999.0,  999.0,  999.0,  999.0,  999.0,  999.0,  999.0,  999.0,  999.0,  999.0,  999.0,   -2.6,   -3.4
1999/07/21 01:10,   -2.1,  999.0,   -1.7,   -1.2,   -3.0,   -6.1,   -6.2,   -6.1,   -4.6,   -2.8,   -2.6,   -3.2,   -4.5,   -4.1,   -4.2,   -5.5,   -6.0,   -5.3,   -4.1,   -5.1,  999.0,  999.0,   -4.3,  999.0,   -3.8,   -3.2,   -3.5,   -3.2,  999.0,   -3.0,   -2.9,   -3.4
1999/07/21 01:20,  999.0,  999.0,   -2.3,   -1.0,   -3.5,   -4.7,   -7.4,   -5.5,   -5.5,   -2.6,   -2.7,   -2.9,   -3.2,   -3.8,   -3.1,   -2.9,   -4.2,  999.0,  999.0,   -5.0,   -5.0,   -4.1,  999.0,   -3.3,   -2.3,  999.0,   -2.5,   -2.3,   -2.9,  999.0,   -2.7,   -3.7
1999/07/21 01:30,  999.0,  999.0,   -1.6,   -2.6,   -4.9,   -6.2,   -6.7,   -6.7,   -6.8,   -4.5,   -2.9,   -3.3,   -4.6,   -5.2,   -5.0,   -5.0,   -4.2,   -5.0,   -4.4,   -4.6,  999.0,  999.0,  999.0,   -3.6,   -3.9,   -3.7,   -2.9,   -2.8,  999.0,   -3.3,   -3.6,   -4.3
1999/07/21 01:40,  999.0,   -1.8,   -2.4,   -3.7,   -4.9,   -6.4,   -7.3,   -7.8,   -7.4,   -6.1,   -4.0,   -2.7,   -3.1,   -3.3,   -4.1,   -3.8,   -3.6,   -3.9,   -3.9,   -4.6,  999.0,   -5.9,   -5.4,   -4.7,  999.0,   -3.7,  999.0,  999.0,  999.0,   -3.4,   -3.8,   -4.2
1999/07/21 01:50,  999.0,   -1.3,   -2.9,   -4.4,   -4.7,   -6.0,   -7.3,   -7.6,  999.0,   -6.8,   -6.6,   -4.2,   -2.5,   -2.7,   -1.9,   -2.6,   -2.9,   -4.1,   -4.3,   -4.1,   -3.8,   -5.1,   -4.8,  999.0,   -3.4,  999.0,   -3.0,   -2.2,   -1.6,   -1.8,   -2.7,   -3.8
1999/07/21 02:00,   -1.0,   -2.8,  999.0,   -0.8,   -1.2,  999.0,   -6.4,   -7.8,  999.0,   -5.3,  999.0,   -5.3,   -4.3,   -2.5,   -3.8,   -3.5,   -3.6,   -4.0,  999.0,  999.0,  999.0,   -4.7,  999.0,  999.0,  999.0,  999.0,  999.0,  999.0,   -1.9,   -2.3,   -3.0,   -3.6
1999/07/21 02:10,   -1.3,   -2.2,   -4.6,   -5.4,   -4.5,   -5.3,   -6.2,   -7.4,  999.0,  999.0,  999.0,  999.0,  999.0,  999.0,  999.0,   -1.1,   -1.4,   -2.4,   -1.9,   -3.3,  999.0,   -5.1,  999.0,  999.0,  999.0,  999.0,   -3.2,   -3.0,   -3.1,   -3.4,   -3.9,   -3.7
1999/07/21 02:20,   -2.4,   -2.8,   -4.4,   -4.9,   -5.4,   -5.9,   -6.1,   -7.4,   -8.5,   -7.5,  999.0,   -5.6,  999.0,  999.0,   -3.7,   -3.2,   -2.1,   -2.3,   -3.6,   -4.2,   -4.8,   -4.8,  999.0,  999.0,  999.0,   -3.7,   -2.1,   -2.6,   -2.3,  999.0,   -4.1,   -4.9
1999/07/21 02:30,   -2.9,   -2.6,   -5.7,   -6.4,   -6.9,   -6.8,   -7.8,   -8.6,   -9.0,   -7.9,   -7.5,   -6.6,   -4.6,  999.0,   -3.2,   -3.5,   -2.6,   -3.9,   -5.0,   -5.3,   -5.5,  999.0,  999.0,  999.0,  999.0,  999.0,  999.0,   -1.5,   -2.2,   -3.1,   -3.7,   -4.8
1999/07/21 02:40,   -1.7,   -3.9,   -5.8,   -6.3,   -7.1,   -8.2,   -8.7,   -8.5,   -8.8,   -7.9,   -7.4,   -6.4,   -4.1,   -3.2,   -2.0,   -1.7,   -2.5,   -3.2,   -3.1,   -3.9,  999.0,  999.0,  999.0,  999.0,  999.0,  999.0,   -3.5,   -2.9,   -3.2,   -3.9,   -4.1,   -4.9
1999/07/21 02:50,  999.0,   -4.0,   -5.3,   -6.1,   -6.5,   -7.8,   -8.9,   -8.4,   -8.3,   -7.8,   -7.7,   -6.3,  999.0,   -4.2,   -3.9,   -3.6,   -3.4,   -4.2,   -4.4,   -4.0,  999.0,  999.0,  999.0,  999.0,  999.0,  999.0,   -2.8,   -2.9,  999.0,  999.0,   -3.6,  999.0
1999/07/21 03:00,   -3.0,   -4.0,   -4.8,   -5.3,   -6.0,   -8.2,   -9.2,   -8.6,   -8.5,   -7.7,   -7.6,   -5.0,   -4.8,   -4.4,  999.0,   -4.6,   -4.3,   -4.5,   -3.8,   -3.3,   -3.9,   -3.4,   -3.3,  999.0,  999.0,  999.0,   -2.9,   -2.5,   -2.7,  999.0,   -4.5,   -4.5
1999/07/21 03:10,   -3.1,   -4.8,   -5.4,   -6.0,   -6.5,   -7.9,   -9.8,   -9.2,   -8.9,   -8.5,   -8.1,  999.0,  999.0,  999.0,  999.0,   -4.1,   -3.7,   -4.5,  999.0,  999.0,   -4.4,   -3.6,   -3.3,   -3.8,  999.0,   -3.5,   -3.3,   -3.2,  999.0,   -3.6,   -3.9,   -3.8
1999/07/21 03:20,   -3.7,   -4.9,   -5.4,   -6.5,   -6.7,   -8.1,   -9.4,   -9.4,   -9.0,   -8.4,   -8.0,   -7.1,   -5.7,   -5.1,  999.0,   -3.8,  999.0,   -3.3,   -3.1,   -2.6,   -3.4,   -3.4,   -3.2,   -3.8,   -3.6,  999.0,  999.0,   -3.7,   -3.9,   -4.0,   -3.6,   -3.5
1999/07/21 03:30,   -3.7,   -4.7,   -5.8,   -7.1,   -8.1,   -9.2,   -9.2,   -9.2,   -9.0,   -9.0,   -9.0,   -7.7,   -5.9,   -5.0,  999.0,   -4.9,   -4.0,   -3.9,   -3.0,   -2.5,   -2.6,   -3.0,   -3.0,   -3.1,  999.0,   -2.7,  999.0,   -3.0,  999.0,   -4.3,   -4.0,   -4.1
1999/07/21 03:40,   -3.7,   -4.9,   -5.9,   -7.1,   -7.5,   -9.6,   -9.9,   -9.5,   -9.1,   -8.5,   -8.8,  999.0,   -6.2,   -4.4,  999.0,   -4.1,  999.0,   -3.4,   -3.0,   -2.0,   -2.2,   -2.6,   -3.2,  999.0,   -3.8,   -3.8,  999.0,   -2.0,   -2.4,   -2.7,   -3.3,   -4.4
1999/07/21 03:50,   -4.0,   -5.1,   -6.5,   -7.1,   -7.5,   -9.0,   -9.9,   -9.7,   -8.9,   -8.9,   -8.5,   -6.7,   -5.2,   -3.4,   -4.3,   -4.3,   -4.4,   -4.2,   -4.0,   -3.1,   -2.6,   -2.6,   -2.7,   -2.5,   -3.0,  999.0,   -1.3,   -0.5,   -1.3,   -1.8,  999.0,   -3.6
1999/07/21 04:00,   -4.2,   -5.5,   -5.8,   -6.6,   -7.0,   -8.6,   -9.4,   -9.2,   -8.7,   -7.6,   -7.3,  999.0,   -4.1,  999.0,  999.0,   -4.0,  999.0,  999.0,  999.0,   -3.5,   -3.0,   -3.5,  999.0,   -3.7,   -4.0,  999.0,   -3.5,   -2.4,   -2.2,   -2.6,  999.0,  999.0
1999/07/21 04:10,   -4.1,   -4.5,   -5.7,   -6.4,   -6.7,   -8.2,   -9.1,   -9.4,   -8.2,   -8.0,   -7.3,   -6.7,   -4.8,   -3.7,  999.0,   -3.6,   -3.4,   -3.0,  999.0,   -2.9,   -1.8,   -2.5,   -2.6,   -3.2,   -3.7,   -4.2,   -4.5,   -4.3,   -3.6,  999.0,  999.0,  999.0
1999/07/21 04:20,   -4.3,   -5.0,   -5.6,   -5.6,   -7.1,   -8.3,   -9.0,   -8.8,   -7.7,   -7.4,   -7.2,   -6.3,   -5.7,  999.0,  999.0,  999.0,   -3.5,  999.0,  999.0,   -3.0,   -1.9,   -1.6,   -2.7,   -3.1,   -3.0,   -3.1,  999.0,  999.0,  999.0,  999.0,   -3.0,   -3.7
1999/07/21 04:30,   -3.7,   -4.7,   -5.1,   -6.0,   -7.3,   -9.2,   -8.9,   -9.0,   -8.8,   -7.8,  999.0,  999.0,   -5.4,   -4.7,   -4.3,  999.0,  999.0,   -4.3,  999.0,   -4.3,   -4.9,   -3.7,  999.0,  999.0,  999.0,  999.0,  999.0,  999.0,  999.0,  999.0,  999.0,   -4.4
1999/07/21 04:40,   -3.6,   -4.7,   -4.6,   -6.1,   -7.5,   -8.9,   -9.4,   -9.1,   -8.7,   -7.2,   -6.1,  999.0,   -5.4,   -4.7,  999.0,  999.0,   -4.2,   -4.2,  999.0,   -3.0,  999.0,   -3.6,  999.0,  999.0,  999.0,  999.0,  999.0,  999.0,  999.0,  999.0,  999.0,   -3.6
1999/07/21 04:50,  999.0,   -4.9,   -5.5,   -5.8,   -7.7,   -8.6,   -8.5,   -8.8,   -8.5,   -7.5,   -6.2,   -5.9,   -5.7,   -5.1,   -4.9,  999.0,   -5.3,   -5.3,   -4.9,  999.0,  999.0,   -4.5,  999.0,  999.0,  999.0,  999.0,  999.0,  999.0,  999.0,  999.0,  999.0,  999.0
1999/07/21 05:00,   -4.4,  999.0,   -5.0,   -5.4,   -6.6,   -7.9,   -8.1,   -7.9,   -8.1,   -7.6,   -6.6,  999.0,   -5.4,  999.0,  999.0,  999.0,   -4.4,   -4.4,   -3.9,  999.0,   -4.4,  999.0,  999.0,  999.0,  999.0,  999.0,  999.0,  999.0,  999.0,  999.0,  999.0,  999.0
1999/07/21 05:10,   -4.0,   -4.6,   -4.4,   -5.0,   -6.1,   -6.9,   -7.2,   -7.5,   -7.5,   -7.0,  999.0,   -5.1,   -5.1,   -5.2,   -4.4,   -4.6,  999.0,   -4.7,   -4.5,   -3.9,   -5.1,  999.0,  999.0,  999.0,  999.0,  999.0,  999.0,  999.0,  999.0,  999.0,  999.0,   -4.9
1999/07/21 05:20,   -4.1,   -4.2,   -4.9,   -5.5,   -6.4,   -7.4,   -7.1,   -7.1,   -7.2,   -7.0,   -6.0,  999.0,   -4.6,   -4.3,   -3.8,  999.0,   -4.1,   -4.1,   -3.4,  999.0,  999.0,  999.0,  999.0,  999.0,  999.0,  999.0,   -5.1,   -5.7,  999.0,  999.0,  999.0,  999.0
1999/07/21 05:30,   -2.8,  999.0,   -4.7,  999.0,   -5.9,   -6.6,   -6.6,   -6.4,   -6.1,   -6.1,   -5.7,   -4.5,   -4.3,  999.0,   -3.6,  999.0,   -3.5,   -3.8,   -3.0,  999.0,   -3.5,  999.0,  999.0,  999.0,  999.0,   -4.8,   -5.4,  999.0,  999.0,  999.0,  999.0,  999.0
1999/07/21 05:40,   -3.0,   -4.4,   -5.3,  999.0,   -7.0,   -7.5,   -7.8,   -7.1,   -6.5,   -6.0,   -6.4,   -4.7,   -4.1,   -4.6,   -4.0,   -4.2,   -5.0,  999.0,  999.0,   -5.1,  999.0,   -6.9,   -6.7,  999.0,   -6.2,   -5.1,   -5.1,  999.0,  999.0,  999.0,  999.0,  999.0
1999/07/21 05:50,  999.0,  999.0,   -5.8,   -5.6,   -6.7,   -7.4,   -7.6,   -6.5,   -5.8,   -6.0,   -5.7,   -4.2,   -2.6,  999.0,  999.0,  999.0,   -4.1,  999.0,   -4.0,   -4.0,  999.0,  999.0,   -5.3,   -4.5,   -4.4,   -3.6,  999.0,  999.0,  999.0,   -3.7,  999.0,   -3.3
1999/07/21 06:00,   -3.8,   -4.1,   -5.4,   -4.4,   -5.9,   -7.5,   -7.1,   -6.4,   -5.9,   -5.5,   -5.3,   -4.2,   -2.3,  999.0,  999.0,   -3.7,   -3.8,   -4.1,  999.0,   -3.8,  999.0,  999.0,   -3.9,   -3.6,   -3.5,   -4.2,  999.0,  999.0,  999.0,   -3.6,  999.0,   -3.8
1999/07/21 06:10,   -3.5,  999.0,   -4.4,   -4.8,   -6.3,   -7.5,   -7.9,   -8.0,   -5.9,  999.0,   -5.4,   -4.9,  999.0,  999.0,   -3.1,   -3.0,   -3.0,   -3.6,  999.0,  999.0,  999.0,   -4.7,  999.0,  999.0,   -4.3,  999.0,  999.0,  999.0,  999.0,  999.0,  999.0,   -4.3
1999/07/21 06:20,   -3.4,   -4.2,   -4.2,   -5.1,  999.0,   -8.2,   -6.8,   -6.7,   -5.2,   -4.9,   -4.8,   -4.7,   -3.0,   -3.5,  999.0,   -3.8,   -4.3,   -4.8,  999.0,  999.0,   -4.6,   -5.1,   -5.5,   -4.0,  999.0,  999.0,  999.0,  999.0,  999.0,  999.0,  999.0,  999.0
1999/07/21 06:30,   -3.4,   -4.1,   -3.9,  999.0,   -6.7,   -7.1,   -7.3,   -7.1,   -5.6,   -4.5,   -4.4,  999.0,   -3.1,  999.0,  999.0,   -2.8,   -4.1,   -5.3,  999.0,  999.0,   -5.0,  999.0,   -4.8,   -5.0,   -4.5,  999.0,  999.0,  999.0,  999.0,  999.0,  999.0,  999.0
1999/07/21 06:40,   -3.8,   -4.8,   -4.7,  999.0,   -5.9,   -6.5,   -6.3,   -5.6,   -4.6,   -4.4,   -4.3,   -4.5,  999.0,  999.0,  999.0,   -3.6,   -3.7,  999.0,   -4.5,  999.0,  999.0,  999.0,   -4.8,   -4.6,  999.0,  999.0,  999.0,  999.0,  999.0,  999.0,  999.0,  999.0
1999/07/21 06:50,   -2.3,   -3.8,   -4.9,  999.0,  999.0,   -6.3,   -6.6,   -6.3,   -5.3,  999.0,  999.0,  999.0,  999.0,  999.0,  999.0,   -2.1,   -3.4,  999.0,   -4.5,  999.0,  999.0,   -3.5,  999.0,  999.0,   -4.1,  999.0,   -4.3,  999.0,  999.0,  999.0,  999.0,  999.0
1999/07/21 07:00,   -1.9,   -3.5,   -3.9,   -4.6,  999.0,   -6.3,   -6.1,   -5.8,   -4.1,   -4.4,   -4.5,  999.0,   -4.7,   -3.7,  999.0,   -3.4,  999.0,  999.0,  999.0,   -4.5,  999.0,  999.0,  999.0,   -4.2,  999.0,  999.0,  999.0,  999.0,  999.0,  999.0,  999.0,  999.0
1999/07/21 07:10,   -2.2,   -3.6,   -4.2,   -4.6,   -5.1,   -5.9,   -6.5,   -5.5,   -3.8,   -3.7,   -4.4,   -5.4,   -4.2,  999.0,  999.0,   -2.9,   -2.8,  999.0,  999.0,   -4.9,   -4.1,   -4.1,   -3.9,   -4.1,   -3.8,   -4.4,  999.0,  999.0,  999.0,  999.0,  999.0,  999.0
1999/07/21 07:20,   -2.0,   -2.8,  999.0,   -4.0,   -5.9,   -7.1,  999.0,   -6.7,   -4.5,   -3.9,   -4.5,   -4.9,   -4.4,  999.0,  999.0,  999.0,  999.0,   -4.3,   -4.5,   -4.8,   -5.2,  999.0,   -4.4,   -4.4,   -4.1,  999.0,  999.0,  999.0,  999.0,  999.0,  999.0,  999.0
1999/07/21 07:30,   -2.1,   -2.6,   -3.0,   -4.2,   -5.3,   -5.7,  999.0,   -6.4,   -5.3,   -3.8,   -4.1,   -4.1,  999.0,   -3.2,  999.0,   -2.7,  999.0,   -4.2,   -4.5,   -5.1,   -4.8,   -4.7,   -4.4,   -4.3,  999.0,   -4.3,  999.0,  999.0,  999.0,  999.0,  999.0,   -3.6
1999/07/21 07:40,   -0.7,   -2.5,   -2.8,   -3.7,   -4.6,   -5.8,   -6.6,   -7.2,   -4.9,  999.0,  999.0,   -4.6,   -5.6,   -4.1,   -3.6,  999.0,  999.0,  999.0,  999.0,   -5.0,  999.0,   -4.6,   -4.5,  999.0,  999.0,  999.0,   -3.8,  999.0,   -3.4,  999.0,  999.0,  999.0
1999/07/21 07:50,   -1.1,   -1.6,   -1.7,   -3.8,   -4.9,   -5.5,   -5.9,   -7.0,   -5.1,   -4.5,   -4.2,   -5.1,   -5.0,   -5.0,   -4.0,   -2.9,  999.0,  999.0,   -4.0,  999.0,  999.0,   -4.0,  999.0,   -4.5,  999.0,  999.0,  999.0,  999.0,  999.0,  999.0,  999.0,  999.0
1999/07/21 08:00,  999.0,   -0.2,   -2.2,   -4.3,   -3.9,   -5.6,   -6.5,   -6.4,   -5.6,  999.0,  999.0,   -4.2,  999.0,   -4.9,  999.0,  999.0,   -2.6,  999.0,  999.0,  999.0,  999.0,   -3.8,  999.0,   -4.3,  999.0,  999.0,  999.0,  999.0,  999.0,  999.0,  999.0,  999.0
1999/07/21 08:10,    0.4,   -0.6,   -2.0,   -4.2,   -4.5,   -5.8,   -7.6,   -7.0,   -5.9,   -4.8,  999.0,   -4.9,   -5.0,   -5.0,   -4.9,  999.0,   -2.4,  999.0,  999.0,   -5.1,  999.0,  999.0,   -4.3,   -4.3,   -4.0,  999.0,  999.0,   -4.1,  999.0,  999.0,   -5.0,  999.0
1999/07/21 08:20,   -0.2,   -0.9,   -2.2,   -4.0,   -4.0,   -5.1,   -6.4,   -6.3,   -5.7,   -5.1,  999.0,   -4.6,  999.0,  999.0,   -5.1,  999.0,  999.0,   -4.1,   -4.8,   -4.7,   -4.9,  999.0,   -4.5,   -4.9,   -4.5,  999.0,  999.0,  999.0,  999.0,  999.0,  999.0,  999.0
1999/07/21 08:30,    0.4,   -0.3,   -2.4,   -3.5,   -3.8,   -6.6,   -5.9,   -6.0,   -6.0,   -5.5,   -4.1,   -4.7,  999.0,  999.0,   -4.6,   -5.0,  999.0,  999.0,   -3.7,  999.0,   -4.2,  999.0,   -4.0,   -4.3,  999.0,  999.0,  999.0,   -3.8,   -3.5,  999.0,  999.0,  999.0
1999/07/21 08:40,   -1.1,    0.1,   -1.7,   -2.3,   -3.6,   -5.2,   -5.2,   -6.0,   -5.5,   -5.2,   -4.2,   -4.0,   -4.6,   -4.7,   -4.7,  999.0,   -4.4,  999.0,   -3.8,  999.0,   -4.2,   -4.5,  999.0,   -3.6,  999.0,  999.0,  999.0,  999.0,  999.0,  999.0,  999.0,  999.0
1999/07/21 08:50,   -0.5,   -0.3,   -2.1,   -3.2,   -4.1,   -5.3,   -5.6,   -6.1,   -5.5,  999.0,   -4.2,   -4.4,   -4.3,  999.0,   -3.8,  999.0,   -3.9,  999.0,  999.0,  999.0,  999.0,  999.0,  999.0,   -3.5,  999.0,  999.0,  999.0,  999.0,  999.0,  999.0,  999.0,  999.0
1999/07/21 09:00,   -2.0,   -0.3,   -1.5,   -2.8,   -4.2,   -5.9,   -6.2,   -5.6,   -5.3,   -5.2,   -4.9,   -4.8,   -4.8,   -4.1,  999.0,   -3.9,  999.0,   -2.9,  999.0,   -3.0,  999.0,  999.0,  999.0,  999.0,  999.0,  999.0,  999.0,  999.0,  999.0,  999.0,   -5.0,  999.0
1999/07/21 09:10,   -1.0,   -1.9,   -3.2,   -4.1,  999.0,  999.0,   -6.4,   -5.6,   -5.5,   -5.4,   -5.5,   -5.4,   -5.5,   -4.9,  999.0,   -2.8,   -4.5,  999.0,  999.0,   -4.1,   -3.6,  999.0,   -4.4,   -4.1,   -4.3,  999.0,  999.0,  999.0,  999.0,  999.0,  999.0,  999.0
1999/07/21 09:20,   -1.5,    0.2,  999.0,   -4.3,   -7.6,   -7.4,   -6.8,   -5.5,   -6.0,   -5.6,   -5.6,   -5.3,   -5.3,   -4.5,  999.0,   -3.8,   -3.5,   -4.0,   -3.5,  999.0,  999.0,  999.0,   -4.2,   -4.3,   -3.7,  999.0,  999.0,  999.0,  999.0,  999.0,  999.0,  999.0
1999/07/21 09:30,   -1.9,   -2.7,   -3.5,   -7.4,   -8.9,   -9.0,   -8.4,  999.0,   -6.4,   -6.3,   -6.4,   -5.7,  999.0,   -4.5,  999.0,   -2.5,   -2.8,   -2.6,   -2.3,  999.0,  999.0,  999.0,   -4.6,  999.0,   -4.5,  999.0,  999.0,  999.0,  999.0,  999.0,  999.0,  999.0
1999/07/21 09:40,    1.6,   -3.1,   -5.2,   -6.9,   -8.7,   -7.2,   -7.4,   -8.3,   -7.6,   -6.8,   -7.1,   -6.2,   -5.3,  999.0,  999.0,  999.0,   -3.1,  999.0,   -3.4,   -3.1,   -3.6,   -4.4,   -5.8,   -5.5,   -4.5,  999.0,  999.0,  999.0,  999.0,   -5.1,   -5.3,  999.0
1999/07/21 09:50,    1.8,  999.0,   -4.0,   -3.5,   -4.3,  999.0,   -6.8,   -6.8,   -7.3,   -6.0,   -5.5,   -4.9,   -4.5,  999.0,  999.0,  999.0,  999.0,  999.0,  999.0,   -2.9,  999.0,  999.0,  999.0,   -4.2,   -4.1,  999.0,  999.0,  999.0,  999.0,   -4.5,  999.0,  999.0
1999/07/21 10:00,    0.5,   -0.5,   -1.0,   -3.3,   -5.5,  999.0,   -7.0,   -7.7,   -7.9,   -6.1,   -6.5,   -5.4,   -5.1,   -4.5,  999.0,  999.0,  999.0,  999.0,   -3.6,  999.0,  999.0,  999.0,  999.0,  999.0,   -4.3,  999.0,  999.0,  999.0,  999.0,   -5.5,  999.0,  999.0
1999/07/21 10:10,    0.4,   -1.6,   -3.6,   -3.8,   -3.7,   -6.2,   -7.6,   -8.0,   -8.2,   -8.0,   -7.5,   -7.4,   -6.1,   -5.4,  999.0,   -2.1,  999.0,  999.0,  999.0,   -3.5,  999.0,   -2.9,  999.0,  999.0,  999.0,  999.0,   -3.9,  999.0,  999.0,  999.0,  999.0,  999.0
1999/07/21 10:20,    1.6,    1.7,   -4.2,   -3.2,   -3.0,   -6.7,   -6.6,   -8.2,   -9.1,   -8.6,   -8.5,   -7.9,   -7.5,   -5.0,  999.0,  999.0,  999.0,  999.0,   -3.3,   -3.0,  999.0,  999.0,  999.0,  999.0,   -4.1,   -4.7,   -4.2,  999.0,  999.0,   -4.4,  999.0,  999.0
1999/07/21 10:30,   -0.1,   -4.5,   -5.0,   -6.5,   -4.7,   -6.9,   -7.3,   -8.6,   -9.9,   -8.9,   -7.6,   -7.4,   -7.1,   -5.9,  999.0,  999.0,  999.0,  999.0,   -3.4,   -2.7,  999.0,  999.0,  999.0,  999.0,   -4.8,   -4.5,   -4.9,  999.0,  999.0,   -5.1,  999.0,  999.0
1999/07/21 10:40,   -1.7,   -4.3,   -5.3,  999.0,  999.0,   -6.3,   -7.1,   -8.1,   -9.2,   -9.2,   -8.1,   -7.6,   -6.9,   -5.8,  999.0,  999.0,  999.0,  999.0,   -3.4,   -2.6,   -2.6,  999.0,  999.0,  999.0,  999.0,  999.0,   -3.4,  999.0,  999.0,   -5.3,  999.0,  999.0
1999/07/21 10:50,    0.5,   -1.4,   -3.5,  999.0,   -5.3,   -6.2,   -6.4,   -7.8,   -8.5,   -9.1,   -9.1,   -7.6,   -7.5,   -5.6,   -3.5,   -2.8,  999.0,  999.0,  999.0,   -3.9,  999.0,  999.0,   -3.9,  999.0,  999.0,  999.0,   -4.4,  999.0,  999.0,  999.0,  999.0,  999.0
1999/07/21 11:00,    2.6,   -0.3,  999.0,  999.0,  999.0,   -5.5,  999.0,   -6.4,   -7.9,   -9.8,   -9.8,   -8.5,   -7.2,   -5.6,   -5.3,  999.0,  999.0,  999.0,  999.0,   -4.0,  999.0,  999.0,   -4.0,  999.0,   -3.3,  999.0,   -3.3,   -3.0,  999.0,  999.0,  999.0,  999.0
1999/07/21 11:10,    3.7,   -0.0,  999.0,   -3.2,   -4.4,   -5.2,   -5.4,   -7.4,   -9.1,  -11.0,  -10.7,   -8.7,   -6.7,   -5.2,   -3.8,  999.0,   -5.4,   -4.5,   -4.3,   -4.4,  999.0,  999.0,   -3.9,   -3.7,   -2.9,   -3.6,   -2.9,   -3.2,  999.0,  999.0,  999.0,  999.0
1999/07/21 11:20,    2.2,    2.5,   -0.6,   -2.6,   -3.8,   -4.6,   -5.9,   -6.0,   -8.1,   -9.4,   -8.7,   -8.0,   -6.7,   -4.9,   -3.0,   -3.2,   -4.9,   -5.2,   -4.2,   -4.5,   -4.6,  999.0,  999.0,  999.0,  999.0,   -5.3,   -3.8,   -3.6,  999.0,   -4.4,  999.0,  999.0
1999/07/21 11:30,    0.3,    0.6,   -0.1,   -2.1,   -2.3,   -3.7,   -5.2,   -8.1,   -7.5,   -7.7,   -6.8,   -6.6,   -6.6,   -5.1,   -3.9,   -2.5,  999.0,   -5.3,  999.0,   -5.0,   -5.0,   -5.1,   -4.7,  999.0,  999.0,  999.0,   -3.7,  999.0,  999.0,  999.0,  999.0,  999.0
1999/07/21 11:40,    1.0,   -0.7,   -1.3,   -3.0,   -4.2,   -5.7,   -6.1,   -7.8,   -8.9,   -9.2,   -5.8,   -7.2,   -6.6,   -4.8,   -2.9,   -3.1,   -3.6,   -4.4,   -4.6,   -4.4,  999.0,  999.0,  999.0,   -4.3,  999.0,   -5.9,   -3.9,   -3.4,  999.0,  999.0,  999.0,  999.0
1999/07/21 11:50,    1.3,    0.6,   -2.8,   -4.3,   -5.4,   -5.8,   -5.6,   -6.2,   -8.2,   -8.9,   -8.4,   -7.8,   -7.7,   -6.2,   -4.8,   -3.4,   -3.2,   -2.9,   -2.9,  999.0,  999.0,   -1.9,  999.0,   -2.3,   -3.2,   -5.2,  999.0,  999.0,  999.0,  999.0,  999.0,  999.0
1999/07/21 12:00,   -1.3,   -2.0,   -4.0,   -4.2,   -4.4,   -5.2,   -5.9,   -7.8,   -8.6,   -9.0,   -8.3,   -7.2,   -6.7,   -5.2,   -4.1,   -2.0,  999.0,   -5.0,   -5.2,   -4.6,  999.0,  999.0,  999.0,   -3.0,   -2.8,   -5.2,   -4.9,  999.0,  999.0,  999.0,  999.0,  999.0
1999/07/21 12:10,   -0.0,   -1.0,   -2.2,   -3.8,   -5.7,   -6.6,   -7.2,   -8.2,   -8.3,   -7.5,   -7.9,   -7.1,   -7.1,   -6.5,   -4.9,  999.0,  999.0,   -4.7,   -5.8,   -4.0,  999.0,  999.0,  999.0,  999.0,  999.0,  999.0,  999.0,  999.0,  999.0,  999.0,  999.0,  999.0
1999/07/21 12:20,    1.2,   -0.6,   -2.8,   -4.7,   -5.9,   -7.1,   -8.6,   -9.1,   -8.7,   -8.2,   -8.5,   -7.2,   -7.1,   -7.6,   -5.0,   -2.0,  999.0,   -5.1,   -5.0,   -3.9,   -3.2,   -3.9,  999.0,   -4.2,  999.0,  999.0,   -4.9,   -4.5,   -4.1,   -3.2,  999.0,  999.0
1999/07/21 12:30,   -1.1,   -2.3,   -4.7,   -5.6,   -5.2,   -6.2,   -6.2,   -5.5,   -6.3,   -7.5,   -7.4,   -7.4,   -6.8,   -6.5,   -5.0,   -1.4,   -4.1,   -5.1,   -5.7,   -4.6,   -4.4,  999.0,  999.0,  999.0,  999.0,  999.0,  999.0,   -6.7,   -5.8,  999.0,  999.0,  999.0
1999/07/21 12:40,   -1.0,   -4.0,   -5.6,   -6.7,   -5.6,   -5.3,   -5.2,   -5.4,   -5.1,   -6.1,   -6.9,   -6.2,   -6.6,   -5.7,   -4.8,  999.0,   -3.8,   -4.2,   -5.0,   -5.1,   -4.2,   -4.4,   -5.4,  999.0,   -5.7,   -6.2,   -6.8,   -6.4,   -5.7,   -4.0,  999.0,  999.0
1999/07/21 12:50,   -1.0,   -3.2,   -4.7,   -4.9,   -4.2,   -5.2,   -5.6,   -5.9,   -5.9,   -6.8,   -7.5,   -7.4,   -7.9,   -7.1,   -7.0,   -5.1,   -5.0,   -5.2,   -5.8,   -5.9,   -5.6,   -5.0,   -4.8,  999.0,   -5.1,   -5.0,   -4.5,   -4.4,   -4.2,   -4.2,  999.0,  999.0
1999/07/21 13:00,   -0.7,   -1.1,   -4.6,   -4.1,   -4.4,   -5.6,   -6.6,   -6.8,   -6.4,   -6.2,   -6.1,   -5.2,   -6.2,   -6.6,   -6.8,   -5.6,   -5.3,   -5.1,   -4.9,   -5.3,   -6.1,   -5.7,   -3.9,   -4.1,   -4.4,   -3.4,   -4.4,   -4.7,   -3.6,   -2.1,  999.0,  999.0
1999/07/21 13:10,    1.2,   -2.9,   -5.7,   -5.1,   -4.7,   -6.0,   -7.0,   -7.1,   -5.8,   -7.4,   -7.4,   -6.9,   -5.3,   -5.6,   -5.6,   -4.9,   -5.9,   -5.0,   -4.7,   -6.3,   -6.7,   -5.9,   -5.6,   -4.9,   -3.9,   -4.0,   -4.0,   -4.1,  999.0,  999.0,  999.0,  999.0
1999/07/21 13:20,  999.0,   -0.5,   -2.6,   -3.6,   -5.6,   -8.6,   -8.7,   -8.1,   -7.6,   -7.9,   -7.0,   -7.1,   -7.8,   -8.0,   -6.3,   -6.9,   -7.0,   -4.9,   -4.9,   -4.1,   -3.8,  999.0,  999.0,   -3.7,   -4.6,   -4.8,   -5.8,   -6.7,   -5.1,  999.0,   -4.6,   -5.1
1999/07/21 13:30,    1.0,    0.7,   -2.2,   -5.4,   -6.6,   -6.6,   -7.8,   -8.2,   -8.4,   -7.5,   -7.3,   -6.4,   -6.1,   -5.7,  999.0,   -4.9,   -5.0,   -3.6,   -3.8,   -4.0,   -4.2,   -5.2,   -5.2,   -5.3,   -5.9,   -6.4,  999.0,   -4.8,   -4.2,  999.0,   -4.3,  999.0
1999/07/21 13:40,  999.0,   -1.6,   -2.2,   -3.6,   -4.5,   -4.8,   -5.7,   -7.0,   -7.0,   -6.9,   -7.7,   -7.4,   -6.6,   -5.4,   -4.8,   -5.7,   -4.9,   -4.5,   -4.4,   -5.1,   -4.9,   -5.4,   -5.5,   -6.5,  999.0,  999.0,  999.0,  999.0,   -4.3,  999.0,   -3.2,  999.0
1999/07/21 13:50,    2.8,    1.9,   -2.0,   -2.3,   -3.5,   -4.3,   -5.8,   -6.8,   -5.3,   -5.0,   -4.8,   -7.5,   -6.7,   -6.3,   -5.0,   -4.8,   -3.7,   -3.8,   -4.5,   -4.8,   -4.1,   -4.1,   -4.9,   -6.0,   -6.2,  999.0,  999.0,   -5.8,   -5.4,  999.0,  999.0,   -6.7
1999/07/21 14:00,    2.4,    0.5,   -2.3,   -3.9,   -4.6,   -4.9,   -5.2,   -5.5,   -4.6,   -5.8,   -7.1,   -6.7,   -5.6,   -4.1,   -5.6,  999.0,   -4.8,   -4.1,   -4.8,   -6.1,   -5.4,   -5.8,   -7.1,   -6.6,   -7.5,   -7.6,  999.0,   -6.4,   -5.9,  999.0,  999.0,  999.0
1999/07/21 14:10,    0.7,   -1.8,    0.8,   -3.2,   -3.5,   -3.6,   -4.6,   -5.4,   -6.4,   -6.3,   -7.1,   -7.6,   -9.1,   -9.6,   -8.2,  -10.1,   -9.1,   -7.0,   -8.0,   -8.5,   -7.0,   -6.3,   -6.2,   -5.9,   -8.0,   -8.4,   -5.6,   -6.1,  999.0,    7.5,  999.0,  999.0
1999/07/21 14:20,    4.4,    2.4,   -5.8,   -2.7,   -1.4,   -3.2,   -3.1,   -4.9,   -6.0,  -10.2,   -8.5,  -12.6,    2.8,   -6.2,  -12.8,   -9.1,   -4.2,   -8.6,   -7.3,  -13.5,  -10.9,   -4.4,   -4.1,   -9.2,   -4.3,   -1.4,   -1.3,   -1.4,   -0.1,    1.4,   -1.6,   -2.0
1999/07/21 14:30,    5.4,    1.9,    0.8,   -0.8,   -0.7,   -2.1,   -4.6,   10.6,   14.4,   24.1,   32.5,   31.7,   32.1,   32.5,   31.8,   21.5,   26.7,   25.5,   20.0,   29.1,   26.7,   30.4,   12.7,    1.4,   -9.7,   -7.7,   -7.5,   -6.4,   -7.1,   -7.7,   -9.1,   -8.1
1999/07/21 14:40,   15.4,   45.9,   22.7,   22.2,   22.0,   21.6,   23.2,   24.2,   49.5,   21.4,   19.0,   45.6,   40.4,   15.2,   14.3,   13.3,   -2.4,   35.2,   24.4,   35.0,    0.5,   31.7,   28.5,   14.9,   -5.3,   -2.7,   -0.6,   -2.2,   -1.2,   -1.6,   -3.2,   -3.0
1999/07/21 14:50,   -4.9,   -4.8,   -2.9,   -2.7,   -4.4,   -6.2,   -6.4,   -7.2,   -3.8,   -0.9,   -0.0,   -3.4,   -2.7,   -2.0,   -3.3,   -3.2,   -3.8,   -3.5,   -5.2,   -2.5,   -1.0,   -1.9,    2.8,    4.5,    2.9,    0.8,    2.7,    4.5,    9.6,    9.9,  999.0,    5.2
1999/07/21 15:00,  -13.7,  -24.3,   -9.5,   -8.1,  -16.3,  -21.1,  -21.3,  -15.7,  -14.7,  -12.8,  -11.7,  -11.4,   -3.5,  -11.6,  -10.0,  -18.2,  -15.5,  -16.0,  -20.5,  -25.2,  -22.7,  -31.6,  -21.2,  -21.2,  -13.0,   -4.0,    9.5,   11.7,   10.0,    7.6,    5.2,    5.1
1999/07/21 15:10,   -1.7,    2.6,   15.6,    3.2,    9.6,   -7.4,   -1.0,   10.0,   13.4,   13.1,   16.8,    3.6,    8.2,    6.4,   11.9,   -1.3,    5.4,    6.6,   -6.8,   -1.7,    1.8,   -0.3,   -7.0,  -22.4,  -17.2,    5.4,    0.1,    5.0,    5.3,    3.4,    0.5,    6.6
1999/07/21 15:20,  -21.7,  -22.0,  -12.9,   -1.2,    1.6,    0.9,  -46.7,  -23.2,    2.1,   -0.6,  -10.5,    4.1,   18.3,    5.0,   -7.7,    1.2,   23.0,   20.4,   37.9,   36.7,   21.7,  -10.7,    0.4,   -4.9,  -19.5,   -4.8,  -21.2,  999.0,  999.0,   -1.5,    5.2,   -3.9
1999/07/21 15:30,  -13.0,  -22.1,  -12.4,  -26.1,  -26.2,  -27.0,  -32.1,  -32.1,  -35.2,  -44.8,  -21.5,  -19.2,   -9.7,  -18.9,  -19.6,  -15.2,   -7.0,   -7.2,   -4.9,   -3.8,   -9.4,   -6.1,   -7.2,   -0.7,   -8.7,   -3.7,  -13.9,   -1.3,   -0.2,   -2.8,   -2.7,   -1.0
1999/07/21 15:40,   22.5,    4.0,   -1.6,    5.1,   -0.2,  -12.7,   11.4,   -7.3,    4.3,    5.7,   -1.3,  -26.6,  -13.5,  -14.5,  -24.3,  -16.7,  -25.2,  -25.7,   -3.9,   21.4,   -7.1,   -6.5,   -4.8,   -4.5,   -7.4,   -3.6,   -2.7,   -5.9,   -3.0,   -2.4,    0.8,    4.2
1999/07/21 15:50,   46.5,   40.1,   33.4,   39.6,   32.6,   30.1,   31.7,   36.3,   17.4,   25.5,   15.4,    0.4,   -2.9,  -13.3,  -16.4,  -13.3,   -9.3,   -9.4,   -3.2,   -1.0,    1.1,    2.4,    4.6,    5.2,    3.8,    3.1,    2.6,    1.6,    1.8,    4.8,   -3.1,   -3.0
1999/07/21 16:00,   -0.6,   -0.7,   -0.6,   -0.9,    0.3,   -0.4,   -0.9,   -0.2,    1.0,  999.0,   -0.2,  999.0,  999.0,    7.2,    7.9,   14.3,   20.0,    9.8,  999.0,   10.0,   -0.6,    4.6,    1.4,    2.3,  999.0,  999.0,    8.9,    9.0,   16.5,  999.0,  999.0,  999.0
1999/07/21 16:10,    1.4,    0.7,    1.3,    0.9,    2.8,    2.8,   -1.0,    2.0,    2.1,    1.2,    3.1,    2.6,   -0.3,    2.0,   -0.6,   -0.4,    2.4,    1.7,   -2.5,   -0.6,    3.1,   -3.6,   -2.3,   -2.6,   -0.5,   -0.7,    0.1,    2.7,    2.2,    0.3,    4.4,    2.1
1999/07/21 16:20,    3.1,    2.8,    2.7,    2.6,    4.4,    3.2,    4.8,    4.6,    4.3,    4.7,    1.7,    0.8,    4.5,    3.7,    7.9,    3.1,    1.5,   -2.2,    1.8,    2.5,   -3.8,   -4.2,   -6.1,    0.3,   -4.7,   -2.0,   -3.0,   -1.2,    0.9,    3.7,    5.0,    3.4
1999/07/21 16:30,    4.3,    3.8,    3.8,    4.3,    2.8,    1.7,    3.3,    3.0,    3.9,    2.4,    1.6,   -0.1,    2.3,    4.2,    4.0,    3.3,    2.3,    2.0,    3.9,    2.3,    3.9,    4.4,    5.8,    5.2,    5.1,    6.1,    7.5,    5.2,    2.4,    1.9,    1.9,    1.4
1999/07/21 16:40,    5.6,    4.1,    4.1,    3.0,    4.4,    4.3,    6.3,    6.0,   -0.6,    0.1,   -2.2,    2.5,   -2.5,   -1.2,   -1.2,   -3.2,   -4.2,   -2.0,    0.3,   -2.1,    2.9,   -1.3,    0.9,    3.7,    3.6,    4.8,    7.5,    8.0,    8.0,    6.2,    4.2,    5.3
1999/07/21 16:50,    5.8,    4.8,    4.9,    4.4,    4.6,    4.8,    5.6,    5.8,    5.2,    5.2,    5.4,    5.8,    5.9,  999.0,    3.6,    3.6,    2.9,    2.9,    3.1,    3.2,    4.3,    5.7,    7.3,    6.6,    6.1,  999.0,  999.0,  999.0,    5.2,    7.0,    6.4,    6.1
1999/07/21 17:00,    6.0,    5.8,    5.3,    5.0,    4.8,    5.6,    6.5,    6.0,    5.4,    5.5,    5.7,    5.2,    4.9,    4.9,    3.5,    3.9,    3.1,    1.8,    2.6,    3.3,    4.4,    6.0,    6.9,    6.9,    7.2,    6.5,    7.2,    7.0,    6.7,    6.4,    6.5,    6.8
1999/07/21 17:10,    5.6,    5.6,    5.4,    4.3,    4.5,    4.9,    4.7,    6.1,    5.0,    5.3,    5.3,    5.6,    4.8,    5.3,    3.7,    3.3,    3.7,    2.7,    2.5,    3.0,    2.2,    3.2,    4.8,    5.4,    5.1,    5.4,    5.4,    5.9,    6.8,    6.4,    7.1,    8.2
1999/07/21 17:20,    5.0,    5.2,    5.0,    2.9,    3.8,    4.9,    5.0,    4.3,    4.0,    4.0,    5.0,    4.6,    4.0,    4.8,    4.0,    3.8,  999.0,    3.6,    3.3,    2.5,    3.2,    3.5,    3.8,  999.0,    4.3,    5.2,    5.0,    5.9,    6.3,    5.7,    6.2,    6.0
1999/07/21 17:30,  999.0,    4.4,  999.0,    2.6,    3.8,    4.6,    5.0,  999.0,  999.0,    4.5,  999.0,  999.0,    4.6,    4.2,    3.8,    3.5,    2.9,    3.2,  999.0,    4.3,  999.0,    3.8,    4.1,    4.1,    5.6,    5.9,    6.1,    6.9,    6.2,    5.4,    6.2,    5.7
1999/07/21 17:40,    4.4,    4.0,    4.0,    3.3,  999.0,    3.8,    5.3,    5.5,    5.5,    5.1,  999.0,    4.9,    4.5,    4.5,    4.5,    4.4,    4.0,    4.2,    4.1,    4.1,    4.2,    3.4,    3.3,    3.4,    4.2,    5.5,    5.7,    7.1,    6.5,    5.8,    5.0,    5.7
1999/07/21 17:50,    4.5,    4.9,    4.4,    4.5,    4.7,  999.0,    5.3,    5.8,    5.9,    5.1,    4.8,    5.0,    5.0,    4.9,    5.9,    5.6,    5.3,    5.2,    5.6,    5.0,    4.9,    4.7,    3.9,    3.7,    3.7,    4.2,    4.9,  999.0,  999.0,    4.4,    5.3,    5.5
1999/07/21 18:00,    4.7,    4.9,  999.0,    4.9,    4.0,    5.8,    6.1,    6.1,    5.4,    6.1,    4.9,    5.1,    4.9,    4.6,    4.8,    5.2,    6.0,    5.7,    5.2,    4.5,    4.1,    4.8,    4.8,    5.4,    6.0,    5.1,    5.2,    5.3,  999.0,    4.8,    5.0,    4.9
1999/07/21 18:10,    5.6,    4.6,    3.3,    2.8,    4.7,    5.8,  999.0,    4.7,  999.0,    5.0,    4.1,    3.5,    4.1,    4.0,    5.5,  999.0,  999.0,    4.2,    4.0,    4.7,    5.1,    4.6,    4.7,    5.0,    5.0,    4.2,    4.2,    3.8,  999.0,    3.6,    4.1,    4.1
1999/07/21 18:20,    5.0,    4.5,    2.8,    4.5,    5.7,    4.9,    3.7,    5.0,    5.3,  999.0,  999.0,  999.0,  999.0,    5.1,    4.8,    5.3,  999.0,  999.0,    5.6,    5.7,  999.0,  999.0,    5.1,    6.0,    6.2,    4.8,  999.0,    4.5,  999.0,    5.0,    4.3,    4.8
1999/07/21 18:30,    4.7,    4.0,    3.8,    4.4,    3.8,  999.0,  999.0,  999.0,    5.8,  999.0,    5.3,    4.8,  999.0,    3.9,    4.6,    4.6,    5.1,  999.0,    4.4,    3.9,  999.0,  999.0,    5.5,    6.3,    6.3,    5.3,  999.0,    4.1,    4.1,    4.2,    3.4,  999.0
1999/07/21 18:40,  999.0,    4.4,    3.9,    4.2,    3.9,    3.0,    4.5,    3.8,    4.0,  999.0,    3.5,    3.1,    3.1,    3.8,    4.5,    4.9,    4.7,    5.9,  999.0,    5.6,  999.0,  999.0,    6.4,  999.0,    5.5,    5.2,    5.3,    5.8,    5.6,    5.9,    4.7,    4.6
1999/07/21 18:50,    5.4,    5.0,    4.1,    4.7,    4.1,    4.7,    4.8,  999.0,  999.0,    4.4,    4.1,  999.0,    2.1,    2.1,    2.8,  999.0,    3.8,  999.0,  999.0,    4.8,    4.9,  999.0,    5.8,  999.0,    5.6,    5.3,    5.8,    5.6,    5.6,    5.0,    4.8,    4.3
1999/07/21 19:00,  999.0,    4.1,    4.2,    3.7,  999.0,  999.0,    5.4,    5.3,  999.0,    4.5,  999.0,  999.0,  999.0,    1.9,    2.3,  999.0,  999.0,    4.3,    4.0,    3.6,  999.0,  999.0,  999.0,  999.0,  999.0,  999.0,  999.0,  999.0,  999.0,  999.0,    4.1,  999.0
1999/07/21 19:10,    4.0,    3.4,    3.4,    4.0,    5.1,    5.3,    6.0,    6.0,  999.0,    5.6,  999.0,    3.8,    2.7,    2.0,    2.6,  999.0,  999.0,    4.3,    4.5,    4.4,  999.0,  999.0,  999.0,  999.0,    5.5,    5.8,    5.2,  999.0,  999.0,    4.7,    3.6,  999.0
1999/07/21 19:20,    4.5,    4.1,  999.0,  999.0,    5.6,  999.0,    5.3,    6.0,    5.9,  999.0,  999.0,    3.5,    2.7,    2.2,    2.5,  999.0,  999.0,    5.0,    4.7,  999.0,    4.5,  999.0,  999.0,  999.0,  999.0,  999.0,  999.0,  999.0,  999.0,    4.3,    3.4,  999.0
1999/07/21 19:30,  999.0,  999.0,    3.7,    4.4,    5.4,  999.0,  999.0,  999.0,    5.5,  999.0,    5.2,  999.0,    3.1,    2.8,  999.0,    3.2,    4.4,  999.0,    5.0,  999.0,    4.7,  999.0,  999.0,  999.0,  999.0,  999.0,  999.0,  999.0,  999.0,    4.5,    3.3,  999.0
1999/07/21 19:40,    2.6,    3.0,  999.0,    4.2,  999.0,    5.2,  999.0,  999.0,    5.7,    5.2,    6.0,    4.6,    3.7,  999.0,    2.6,  999.0,    3.2,    3.3,    4.4,    3.9,    4.2,  999.0,  999.0,    4.5,    3.2,  999.0,  999.0,  999.0,  999.0,    3.5,  999.0,  999.0
1999/07/21 19:50,    3.2,    4.7,  999.0,  999.0,    4.1,  999.0,  999.0,    5.2,  999.0,  999.0,  999.0,  999.0,  999.0,  999.0,    4.5,  999.0,    4.2,  999.0,    5.7,  999.0,  999.0,  999.0,  999.0,    4.7,  999.0,  999.0,  999.0,  999.0,  999.0,  999.0,  999.0,  999.0
1999/07/21 20:00,  999.0,  999.0,  999.0,    3.6,    3.9,    4.5,    4.6,    5.4,  999.0,  999.0,  999.0,  999.0,  999.0,  999.0,  999.0,  999.0,  999.0,  999.0,  999.0,  999.0,    5.4,  999.0,  999.0,  999.0,    4.2,  999.0,  999.0,  999.0,  999.0,    3.4,    2.5,  999.0
1999/07/21 20:10,  999.0,    5.1,  999.0,    3.8,    3.0,    5.1,  999.0,    5.8,    5.9,    5.3,    5.1,    4.6,  999.0,  999.0,    4.9,  999.0,  999.0,    4.7,    6.2,  999.0,  999.0,  999.0,  999.0,    5.9,    5.4,  999.0,  999.0,  999.0,    4.5,    3.3,  999.0,  999.0
1999/07/21 20:20,  999.0,  999.0,    3.5,  999.0,  999.0,    4.9,  999.0,  999.0,    5.7,  999.0,    5.2,    4.7,    4.1,    4.7,    5.5,  999.0,    4.9,  999.0,    6.1,  999.0,  999.0,  999.0,  999.0,  999.0,    4.6,  999.0,  999.0,  999.0,    3.8,    3.7,  999.0,  999.0
1999/07/21 20:30,  999.0,    3.2,  999.0,  999.0,    4.0,    5.1,  999.0,    6.5,    5.0,  999.0,    5.6,    5.0,    5.1,  999.0,  999.0,    4.8,    4.7,    6.7,  999.0,  999.0,  999.0,  999.0,  999.0,    5.8,    5.3,  999.0,  999.0,  999.0,  999.0,    3.2,  999.0,  999.0
1999/07/21 20:40,  999.0,    3.4,    3.2,    2.6,    3.2,    4.1,    5.6,    7.0,    6.2,    6.0,  999.0,    4.8,    4.9,  999.0,    5.2,    4.5,  999.0,    4.4,  999.0,    6.8,    6.3,  999.0,  999.0,  999.0,  999.0,  999.0,  999.0,  999.0,  999.0,  999.0,  999.0,  999.0
1999/07/21 20:50,    1.6,    2.7,  999.0,    3.1,  999.0,    4.4,    5.0,    7.0,    6.5,    5.9,    6.0,    5.5,  999.0,    5.3,    5.3,    5.5,    5.5,    6.9,    8.0,  999.0,  999.0,  999.0,  999.0,  999.0,  999.0,  999.0,  999.0,  999.0,  999.0,  999.0,  999.0,  999.0
1999/07/21 21:00,  999.0,  999.0,    2.6,    3.4,    3.7,    4.2,    4.5,    5.9,    6.1,    5.6,  999.0,    5.8,    6.9,    6.8,    6.7,  999.0,    4.9,    6.2,    7.7,  999.0,    8.3,    8.4,    5.6,  999.0,  999.0,  999.0,  999.0,  999.0,    3.3,  999.0,  999.0,  999.0
1999/07/21 21:10,    3.5,    3.4,    3.1,    4.0,    5.5,    5.3,    4.8,  999.0,    5.9,    5.2,  999.0,  999.0,    6.4,    7.2,    7.0,    6.0,    5.4,    5.5,    6.1,  999.0,    7.4,  999.0,  999.0,  999.0,  999.0,  999.0,  999.0,  999.0,  999.0,    3.4,  999.0,  999.0
1999/07/21 21:20,  999.0,    2.7,    2.9,    3.5,    5.6,    4.7,    4.0,    4.1,  999.0,    4.7,  999.0,  999.0,  999.0,  999.0,    7.2,    6.7,    6.2,    5.2,    5.1,    6.0,    6.5,  999.0,  999.0,  999.0,  999.0,  999.0,  999.0,  999.0,  999.0,  999.0,  999.0,  999.0
1999/07/21 21:30,    1.9,    3.2,    3.9,    5.3,    5.1,    4.6,    3.4,    4.1,    3.4,    4.3,    5.8,    6.7,    7.2,    7.0,    7.5,    6.7,    6.0,    5.6,    6.1,    6.6,    6.8,  999.0,  999.0,  999.0,  999.0,  999.0,    4.5,    3.7,  999.0,  999.0,  999.0,  999.0
1999/07/21 21:40,    2.3,    3.4,    4.6,    5.4,    5.6,    4.6,    3.5,    3.0,  999.0,  999.0,    5.9,    6.1,    5.9,    5.7,    6.9,    6.8,  999.0,    6.2,    5.8,    7.1,    7.3,    7.7,    7.3,  999.0,  999.0,  999.0,    4.8,    3.5,  999.0,  999.0,  999.0,  999.0
1999/07/21 21:50,    2.6,    3.2,    3.7,    5.6,    6.1,    4.9,    4.2,    3.5,    4.3,    5.2,    5.8,    6.5,    6.1,    6.6,    7.6,    7.5,  999.0,    5.8,    5.9,    6.0,    7.4,    7.6,    8.4,  999.0,  999.0,    4.0,    3.2,    2.7,  999.0,  999.0,  999.0,  999.0
1999/07/21 22:00,    2.1,    3.5,    4.9,    5.3,    5.8,    5.1,    4.0,    4.5,    4.7,    5.3,    5.9,    6.6,    6.9,    8.1,    6.3,    6.7,    6.0,    4.9,    5.4,    4.9,    6.1,    6.9,  999.0,  999.0,  999.0,    4.3,  999.0,  999.0,  999.0,  999.0,  999.0,  999.0
1999/07/21 22:10,  999.0,  999.0,    5.2,    5.9,    5.4,    3.5,    3.8,    4.1,    4.1,    4.7,    5.4,  999.0,    4.8,    5.5,    6.4,    6.9,    6.4,    7.0,    5.4,    6.3,    6.3,    6.1,    7.2,  999.0,  999.0,    3.6,  999.0,    2.5,  999.0,  999.0,  999.0,  999.0
1999/07/21 22:20,  999.0,    5.1,    5.6,    5.8,    5.0,    3.2,    3.7,  999.0,    4.5,    4.1,    5.1,    6.0,  999.0,    5.8,    6.3,  999.0,  999.0,  999.0,    4.4,    5.0,    5.9,  999.0,  999.0,  999.0,    5.3,    3.8,  999.0,  999.0,  999.0,  999.0,  999.0,  999.0
1999/07/21 22:30,    3.2,    5.2,    5.5,    5.4,    5.0,    3.4,    2.3,    3.6,    4.3,    4.1,    4.5,    5.4,  999.0,    5.0,    5.8,    6.5,    6.8,    5.9,    6.1,    6.8,    8.0,    8.0,    8.2,    8.6,    6.3,    5.2,  999.0,  999.0,  999.0,  999.0,  999.0,  999.0
1999/07/21 22:40,    3.9,    4.7,    5.9,    5.9,    5.6,    4.2,    2.3,    3.1,  999.0,    3.7,    3.7,    5.2,    5.4,    4.9,    5.2,  999.0,    6.0,    6.1,    5.3,    5.7,    6.2,    6.7,    7.2,    7.0,    5.1,    2.6,    2.9,  999.0,  999.0,  999.0,  999.0,  999.0
1999/07/21 22:50,  999.0,    5.2,    6.1,    6.6,  999.0,    5.1,    3.9,    3.7,    3.7,    3.8,    3.6,    5.3,    6.3,    5.9,    5.5,    6.4,    5.8,    6.3,    5.4,    5.1,    7.2,    6.8,    7.6,    6.4,    4.4,    2.3,  999.0,  999.0,  999.0,  999.0,  999.0,  999.0
1999/07/21 23:00,    4.0,    5.3,    6.8,    6.6,    6.5,    5.4,    4.1,  999.0,  999.0,    2.4,    2.7,    4.0,    5.0,  999.0,  999.0,  999.0,    5.6,    5.8,    5.9,    7.4,    7.2,    6.6,    7.4,    6.2,    4.0,    1.6,  999.0,  999.0,  999.0,  999.0,  999.0,  999.0
1999/07/21 23:10,    4.5,    5.7,    6.9,    7.1,    6.4,    5.3,    4.7,  999.0,    2.1,    2.8,    2.4,    3.8,  999.0,  999.0,  999.0,    5.9,  999.0,  999.0,    6.6,  999.0,    6.7,  999.0,    5.5,    5.2,    3.4,  999.0,  999.0,  999.0,  999.0,  999.0,    3.8,  999.0
1999/07/21 23:20,    4.6,  999.0,    7.0,    6.7,    5.9,    4.9,    3.9,    2.9,    1.2,  999.0,    2.7,    4.4,    4.5,    5.3,    5.6,    5.6,    4.9,  999.0,    7.0,    7.7,    6.4,  999.0,    6.5,    5.8,  999.0,    2.2,  999.0,  999.0,  999.0,    3.8,    4.4,  999.0
1999/07/21 23:30,    5.1,    6.2,    7.0,    6.5,  999.0,    4.7,    3.7,    3.7,    1.5,    1.4,    3.0,  999.0,  999.0,    5.8,    5.6,    5.4,    5.3,  999.0,    6.7,    7.9,    6.2,  999.0,    6.6,    5.7,    3.3,    1.1,  999.0,  999.0,  999.0,  999.0,    2.6,  999.0
1999/07/21 23:40,    4.6,    5.8,    6.4,    6.4,    5.7,    4.8,    3.9,  999.0,    2.2,    2.1,    3.3,  999.0,    5.2,    6.1,    6.2,    5.7,    5.7,    5.8,    6.8,    7.6,    6.8,  999.0,  999.0,    6.4,    3.6,    1.8,  999.0,  999.0,  999.0,    3.1,  999.0,    4.4
1999/07/21 23:50,    4.3,    5.2,    5.9,    6.0,    5.5,    4.8,    4.3,  999.0,    2.7,    3.0,  999.0,  999.0,  999.0,    6.0,    6.5,    6.0,    5.8,    6.0,    6.3,  999.0,    7.1,  999.0,    6.1,    5.6,    3.4,    1.8,  999.0,  999.0,  999.0,  999.0,  999.0,  999.0
